Starlink 32409

operational
NORAD ID: 61591 Int'l Des: 2024-187 Owner: SPXS Country: US Constellation: starlink
LEOCIRCULAR

关于 Starlink 32409

正在加载描述...

实时位置

正在加载3D地球...

即将过境

高度历史

Altitude vs Time

uPlot chart will show altitude changes over time

两行轨道根数

1 61591U 24187T 25353.61792784 .00000664 00000-0 34536-4 0 9997
2 61591 53.1603 62.0863 0001099 77.0449 283.0674 15.30192586 67033
Epoch: Dec 19, 2025 • Age: 8 hours

当前状态

高度 481.0 km
速度 7.63 km/s
星下点 52.91°N, 85.14°E
发射日期 Oct 18, 2024
运行时间 1.1 years
类型 internet

技术详情

分类 Payload
质量 730.00 kg
干质量 700.00 kg
总质量 730.00 kg
长度 0.30 m
直径 4.10 m
跨度 29.00 m
形状 Box + pan
制造商 SPXS
平台类型 Starlink V2M
阶段状态 In Orbit
所有者/国家 SPXS/US

大型星座

Loading constellations...